| time (UTC) | temp C | wind direction | speed KPH | gust KPH | rain 1hr cm | rain 24hr cm | rain mn cm | humidity % | barometer mb |
| 20260505004539 | 25 | 112 | 6.4 | 22.5 | 0.00 | 0.00 | 0.00 | 16 | 1008.2 |
| 20260505003047 | 25 | 53 | 8.0 | 20.9 | 0.00 | 0.00 | 0.00 | 17 | 1007.9 |
| 20260505001540 | 25 | 44 | 8.0 | 20.9 | 0.00 | 0.00 | 0.00 | 16 | 1008.1 |
| 20260505000053 | 25 | 61 | 11.3 | 29.0 | 0.00 | 0.00 | 0.00 | 15 | 1008.1 |
| 20260504234541 | 25 | 42 | 6.4 | 22.5 | 0.00 | 0.00 | 0.00 | 17 | 1007.9 |
| 20260504233049 | 26 | 23 | 6.4 | 16.1 | 0.00 | 0.00 | 0.00 | 16 | 1008.1 |
| 20260504231538 | 25 | 46 | 6.4 | 16.1 | 0.00 | 0.00 | 0.00 | 17 | 1008.1 |
| 20260504230104 | 25 | 24 | 6.4 | 22.5 | 0.00 | 0.00 | 0.00 | 16 | 1008.3 |
| 20260504224558 | 25 | 355 | 3.2 | 20.9 | 0.00 | 0.00 | 0.00 | 19 | 1008.3 |
| 20260504223048 | 25 | 18 | 8.0 | 19.3 | 0.00 | 0.00 | 0.00 | 17 | 1008.2 |
| 20260504221539 | 25 | 341 | 3.2 | 20.9 | 0.00 | 0.00 | 0.00 | 16 | 1008.1 |
| 20260504220052 | 25 | 13 | 9.7 | 24.1 | 0.00 | 0.00 | 0.00 | 14 | 1008.2 |
| 20260504214547 | 25 | 0 | 3.2 | 22.5 | 0.00 | 0.00 | 0.00 | 17 | 1008.5 |
| 20260504213040 | 25 | 24 | 6.4 | 16.1 | 0.00 | 0.00 | 0.00 | 16 | 1008.5 |
| 20260504211538 | 25 | 355 | 9.7 | 25.7 | 0.00 | 0.00 | 0.00 | 18 | 1008.5 |
| 20260504210052 | 25 | 23 | 11.3 | 22.5 | 0.00 | 0.00 | 0.00 | 16 | 1008.6 |
| 20260504204546 | 25 | 24 | 8.0 | 19.3 | 0.00 | 0.00 | 0.00 | 19 | 1008.5 |
| 20260504203045 | 24 | 32 | 12.9 | 22.5 | 0.00 | 0.00 | 0.00 | 17 | 1008.6 |
| 20260504201544 | 25 | 351 | 3.2 | 19.3 | 0.00 | 0.00 | 0.00 | 16 | 1008.5 |
| 20260504200050 | 25 | 37 | 8.0 | 17.7 | 0.00 | 0.00 | 0.00 | 17 | 1008.6 |
| 20260504194538 | 25 | 21 | 3.2 | 17.7 | 0.00 | 0.00 | 0.00 | 20 | 1008.6 |
| 20260504193045 | 24 | 16 | 4.8 | 16.1 | 0.00 | 0.00 | 0.00 | 19 | 1008.8 |
| 20260504191552 | 23 | 46 | 8.0 | 19.3 | 0.00 | 0.00 | 0.00 | 17 | 1008.8 |
| 20260504190040 | 23 | 37 | 8.0 | 16.1 | 0.00 | 0.00 | 0.00 | 16 | 1008.8 |
| 20260504184540 | 23 | 44 | 3.2 | 17.7 | 0.00 | 0.00 | 0.00 | 19 | 1008.9 |
| 20260504183038 | 23 | 53 | 4.8 | 20.9 | 0.00 | 0.00 | 0.00 | 20 | 1009.0 |
| 20260504181544 | 23 | 355 | 6.4 | 25.7 | 0.00 | 0.00 | 0.00 | 20 | 1009.1 |
| 20260504180044 | 22 | 14 | 9.7 | 20.9 | 0.00 | 0.00 | 0.00 | 18 | 1009.0 |
| 20260504174539 | 22 | 13 | 6.4 | 19.3 | 0.00 | 0.00 | 0.00 | 22 | 1008.8 |
| 20260504173039 | 22 | 15 | 11.3 | 24.1 | 0.00 | 0.00 | 0.00 | 21 | 1008.7 |
| 20260504171538 | 21 | 25 | 6.4 | 22.5 | 0.00 | 0.00 | 0.00 | 24 | 1008.6 |
| 20260504081544 | 9 | 0 | 0.0 | 0.0 | 0.00 | 0.00 | 0.00 | 63 | 1008.1 |
| 20260504044540 | 14 | 0 | 0.0 | 0.0 | 0.00 | 0.00 | 0.00 | 48 | 1008.2 |
| 20260504043049 | 15 | 0 | 0.0 | 3.2 | 0.00 | 0.00 | 0.00 | 45 | 1008.1 |
| 20260504041540 | 16 | 44 | 1.6 | 4.8 | 0.00 | 0.00 | 0.00 | 43 | 1008.1 |
| 20260504040042 | 16 | 0 | 0.0 | 4.8 | 0.00 | 0.00 | 0.00 | 43 | 1008.2 |
| 20260504034546 | 17 | 45 | 3.2 | 6.4 | 0.00 | 0.00 | 0.00 | 42 | 1007.9 |
| 20260504033037 | 17 | 46 | 1.6 | 4.8 | 0.00 | 0.00 | 0.00 | 41 | 1008.0 |
| 20260504031547 | 18 | 44 | 3.2 | 6.4 | 0.00 | 0.00 | 0.00 | 37 | 1007.7 |
| 20260504030101 | 20 | 98 | 1.6 | 4.8 | 0.00 | 0.00 | 0.00 | 36 | 1007.7 |
| 20260504024540 | 22 | 0 | 0.0 | 1.6 | 0.00 | 0.00 | 0.00 | 29 | 1007.8 |
| 20260504023038 | 23 | 0 | 0.0 | 0.0 | 0.00 | 0.00 | 0.00 | 20 | 1007.9 |
| 20260504021544 | 24 | 0 | 0.0 | 0.0 | 0.00 | 0.00 | 0.00 | 19 | 1008.1 |
| 20260504020038 | 25 | 0 | 0.0 | 4.8 | 0.00 | 0.00 | 0.00 | 18 | 1008.5 |
| 20260504014537 | 25 | 0 | 0.0 | 0.0 | 0.00 | 0.00 | 0.00 | 17 | 1008.3 |
| 20260504013047 | 26 | 0 | 0.0 | 4.8 | 0.00 | 0.00 | 0.00 | 18 | 1008.5 |
| 20260504011541 | 26 | 0 | 1.6 | 6.4 | 0.00 | 0.00 | 0.00 | 12 | 1008.8 |
| 20260504010045 | 27 | 0 | 0.0 | 9.7 | 0.00 | 0.00 | 0.00 | 17 | 1008.9 |